Home   Weather   Rio Branco   Past weeks
Flag for Brazil

Past Weather in Rio Branco, Acre, Brazil — Yesterday and Last 2 Weeks

Now
82 °F

Broken clouds.


Feels Like: 88 °F
Forecast: 86 / 71 °F
Wind: No wind

Location: Rio Branco Airport

Current Time: Oct 23, 2019 at 11:17:35 am

Latest Report: Oct 23, 2019 at 10:00 am


Visibility: N/A

Pressure: 29.92 "Hg

Humidity: 74%

Dew Point: 73 °F

Location of Rio BrancoLocation

Past Weather in Rio Branco — Graph

°F

Rio Branco Temperature Yesterday

Maximum temperature yesterday: 90 °F (at 2:00 pm)
Minimum temperature yesterday: 72 °F (at 1:00 am)
Average temperature yesterday: 78 °F

High & Low Weather Summary for the Past Weeks

 TemperatureHumidityPressure
High95 °F (Oct 9, 1:00 pm)100% (Oct 8, 10:00 pm)30.01 "Hg (Oct 8, 10:00 pm)
Low70 °F (Oct 16, 11:30 pm)41% (Oct 9, 1:00 pm)29.74 "Hg (Oct 9, 4:00 pm)
Average78 °F88%29.88 "Hg
* Reported Oct 8 10:00 am — Oct 23 10:00 am, Rio Branco. Weather by CustomWeather, © 2019

Note: Actual official high and low records may vary slightly from our data, if they occured in-between our weather recording intervals... More about our weather records

Advertising

Rio Branco Weather History for the Previous 24 Hours

Scroll right to see more
 ConditionsComfort  
Time TempWeatherWind HumidityBarometerVisibility
10:00 am
Wed, Oct 23
82 °FBroken clouds.No wind74%29.92 "HgN/A
9:15 am81 °FScattered clouds.1 mph84%29.92 "HgN/A
9:00 am79 °FBroken clouds.2 mph89%29.92 "HgN/A
8:00 am77 °FPartly sunny.3 mph100%29.92 "HgN/A
7:07 am75 °FPartly sunny.3 mph100%29.92 "HgN/A
6:00 am73 °FSunny.No wind100%29.89 "Hg10 mi
5:00 am72 °FPassing clouds.1 mph100%29.86 "Hg5 mi
4:00 am72 °FFog.2 mph100%29.83 "Hg3 mi
3:00 am73 °FFog.3 mph94%29.80 "Hg3 mi
2:00 am72 °FFog.No wind100%29.83 "Hg3 mi
1:00 am73 °FThundershowers. Fog.3 mph94%29.83 "Hg3 mi
12:00 am73 °FFog.2 mph94%29.83 "Hg3 mi
11:00 pm
Tue, Oct 22
73 °FClear.2 mph100%29.83 "Hg10 mi
10:00 pm73 °FClear.3 mph100%29.83 "Hg10 mi
9:00 pm73 °FThundershowers. Passing clouds.6 mph100%29.83 "HgN/A
8:00 pm73 °FThundershowers. Passing clouds.8 mph100%29.83 "Hg4 mi
7:00 pm75 °FThunderstorms. Passing clouds.10 mph100%29.83 "Hg3 mi
6:43 pm77 °FThundershowers. Passing clouds.5 mph94%29.83 "Hg3 mi
6:00 pm79 °FThundershowers. Passing clouds.No wind100%29.80 "Hg5 mi
5:00 pm79 °FScattered showers. Partly sunny.5 mph100%29.77 "HgN/A
4:00 pm77 °FLight rain. Partly sunny.3 mph100%29.74 "HgN/A
3:38 pm75 °FHeavy rain. Partly sunny.14 mph100%29.74 "Hg1 mi
3:00 pm86 °FScattered showers. Scattered clouds.7 mph75%29.74 "HgN/A
2:00 pm90 °FScattered showers. Broken clouds.3 mph63%29.77 "HgN/A
1:00 pm84 °FScattered showers. Sunny.5 mph74%29.86 "Hg10 mi
12:00 pm82 °FScattered clouds.5 mph79%29.89 "HgN/A
11:00 am84 °FBroken clouds.8 mph74%29.92 "HgN/A
Weather by CustomWeather, © 2019

See weather overview